Location: Alsip
(41.6689°N, 87.7387°W)
Time: 13:53:26
(UTC+00:00)

deb Chang Zheng 4 - Pass Details

Date: 14 July 2020
Orbit: 603 x 627 km, 98.6° (Epoch: 04 August)

Event Time Altitude Azimuth Distance (km) Brightness Sun altitude
Rises 09:51:09 0° 15° (NNE) 2,872 7.9 -6.8°
Reaches altitude 10° 09:53:21 10° 17° (NNE) 1,966 7.1 -6.4°
Maximum altitude 09:57:36 74° 102° (ESE) 640 3.8 -5.8°
Drops below altitude 10° 10:01:52 10° 188° (S) 1,964 5.7 -5.2°
Sets 10:04:03 0° 191° (S) 2,868 6.5 -4.8°
